BBQ3644 KELP-KPHX

Flight info

Callsign BBQ3644
Flight time 0h 53m
Altitude 30000
Route ATKNN5 ATKNN DRRVR PINNG1
Aircraft B738/M-SDE2E3FGHIRWXY/LB1

Departure

Time 2026-04-25 02:30
Airport El Paso International Airport (KELP)

Arrival

Time 2026-04-25 03:23
Airport Phoenix Sky Harbor International Airport (KPHX)
Time Latitude Longitude Altitude Speed Heading
2026-04-25 02:00 31.81953 -106.36610 3946 ft 0 kts 140°
2026-04-25 02:23 31.81964 -106.36621 3946 ft 3 kts 140°
2026-04-25 02:23 31.81979 -106.36635 3946 ft 3 kts 154°
2026-04-25 02:24 31.81997 -106.36641 3946 ft 3 kts 185°
2026-04-25 02:24 31.82014 -106.36635 3946 ft 3 kts 216°
2026-04-25 02:24 31.82024 -106.36625 3946 ft 0 kts 225°
2026-04-25 02:26 31.82022 -106.36627 3946 ft 1 kts 225°
2026-04-25 02:26 31.82010 -106.36642 3946 ft 7 kts 228°
2026-04-25 02:26 31.81968 -106.36699 3946 ft 10 kts 229°
2026-04-25 02:26 31.81929 -106.36765 3946 ft 10 kts 251°
2026-04-25 02:27 31.81913 -106.36839 3946 ft 9 kts 258°
2026-04-25 02:27 31.81940 -106.36904 3946 ft 9 kts 319°
2026-04-25 02:27 31.81988 -106.36951 3945 ft 9 kts 320°
2026-04-25 02:27 31.82041 -106.36976 3945 ft 9 kts 25°
2026-04-25 02:28 31.82085 -106.36927 3945 ft 8 kts 46°
2026-04-25 02:28 31.82136 -106.36910 3945 ft 8 kts 336°
2026-04-25 02:28 31.82182 -106.36948 3946 ft 8 kts 322°
2026-04-25 02:28 31.82225 -106.36988 3945 ft 8 kts 322°
2026-04-25 02:29 31.82261 -106.37034 3945 ft 8 kts 283°
2026-04-25 02:29 31.82234 -106.37087 3945 ft 9 kts 230°
2026-04-25 02:29 31.82115 -106.37255 3944 ft 58 kts 230°
2026-04-25 02:29 31.81706 -106.37825 3947 ft 122 kts 230°
2026-04-25 02:30 31.81029 -106.38750 3985 ft 171 kts 231°
2026-04-25 02:30 31.80222 -106.39870 4552 ft 187 kts 232°
2026-04-25 02:30 31.79513 -106.41150 5311 ft 189 kts 246°
2026-04-25 02:30 31.78881 -106.42623 5580 ft 214 kts 244°
2026-04-25 02:31 31.78154 -106.44256 5839 ft 237 kts 244°
2026-04-25 02:31 31.77354 -106.46050 6045 ft 260 kts 244°
2026-04-25 02:31 31.76535 -106.48013 6649 ft 270 kts 253°
2026-04-25 02:31 31.76414 -106.50198 7457 ft 275 kts 282°
2026-04-25 02:32 31.77185 -106.52264 8303 ft 279 kts 300°
2026-04-25 02:32 31.78263 -106.54147 9316 ft 275 kts 301°
2026-04-25 02:32 31.79338 -106.56021 10151 ft 280 kts 301°
2026-04-25 02:32 31.80400 -106.57975 10774 ft 289 kts 294°
2026-04-25 02:33 31.81059 -106.60283 11029 ft 308 kts 279°
2026-04-25 02:33 31.81432 -106.62832 11381 ft 325 kts 277°
2026-04-25 02:33 31.81804 -106.65544 11553 ft 347 kts 278°
2026-04-25 02:33 31.82203 -106.68419 11698 ft 366 kts 278°
2026-04-25 02:34 31.82627 -106.71441 11899 ft 381 kts 278°
2026-04-25 02:34 31.83070 -106.74541 12372 ft 387 kts 278°
2026-04-25 02:34 31.83521 -106.77668 13002 ft 388 kts 278°
2026-04-25 02:34 31.83976 -106.80802 13623 ft 389 kts 278°
2026-04-25 02:35 31.84426 -106.83908 14225 ft 391 kts 278°
2026-04-25 02:35 31.84884 -106.87063 14800 ft 392 kts 278°
2026-04-25 02:35 31.85341 -106.90237 15334 ft 395 kts 278°
2026-04-25 02:35 31.85801 -106.93432 15872 ft 396 kts 278°
2026-04-25 02:36 31.86264 -106.96639 16419 ft 398 kts 278°
2026-04-25 02:36 31.86726 -106.99850 16965 ft 398 kts 278°
2026-04-25 02:36 31.87191 -107.03061 17442 ft 400 kts 278°
2026-04-25 02:36 31.87657 -107.06316 17828 ft 405 kts 278°
2026-04-25 02:37 31.88124 -107.09590 18353 ft 405 kts 278°
2026-04-25 02:37 31.88591 -107.12858 18850 ft 406 kts 278°
2026-04-25 02:37 31.89059 -107.16134 19265 ft 407 kts 278°
2026-04-25 02:37 31.89527 -107.19436 19634 ft 411 kts 278°
2026-04-25 02:38 31.89998 -107.22761 20037 ft 412 kts 278°
2026-04-25 02:38 31.90468 -107.26094 20474 ft 413 kts 278°
2026-04-25 02:38 31.90941 -107.29430 20841 ft 414 kts 278°
2026-04-25 02:38 31.91417 -107.32792 21137 ft 418 kts 278°
2026-04-25 02:39 31.91893 -107.36168 21517 ft 419 kts 278°
2026-04-25 02:39 31.92362 -107.39513 21890 ft 420 kts 278°
2026-04-25 02:39 31.92839 -107.42914 22210 ft 421 kts 278°
2026-04-25 02:39 31.93316 -107.46327 22501 ft 424 kts 278°
2026-04-25 02:40 31.93794 -107.49755 22816 ft 425 kts 278°
2026-04-25 02:40 31.94272 -107.53191 23144 ft 425 kts 278°
2026-04-25 02:40 31.94751 -107.56627 23433 ft 426 kts 278°
2026-04-25 02:40 31.95230 -107.60073 23686 ft 427 kts 278°
2026-04-25 02:41 31.95709 -107.63536 23967 ft 428 kts 278°
2026-04-25 02:41 31.96189 -107.67003 24237 ft 429 kts 278°
2026-04-25 02:41 31.96668 -107.70476 24445 ft 431 kts 278°
2026-04-25 02:41 31.97143 -107.73921 24639 ft 432 kts 278°
2026-04-25 02:42 31.97625 -107.77428 24875 ft 434 kts 278°
2026-04-25 02:42 31.98107 -107.80936 25139 ft 434 kts 278°
2026-04-25 02:42 31.98587 -107.84448 25362 ft 435 kts 278°
2026-04-25 02:42 31.99068 -107.87972 25570 ft 436 kts 278°
2026-04-25 02:43 31.99549 -107.91501 25782 ft 436 kts 278°
2026-04-25 02:43 32.00029 -107.95029 26048 ft 435 kts 278°
2026-04-25 02:43 32.00505 -107.98540 26338 ft 434 kts 278°
2026-04-25 02:43 32.00980 -108.02043 26601 ft 433 kts 278°
2026-04-25 02:44 32.01454 -108.05544 26914 ft 431 kts 278°
2026-04-25 02:44 32.01924 -108.09030 27264 ft 429 kts 277°
2026-04-25 02:44 32.02390 -108.12488 27621 ft 427 kts 277°
2026-04-25 02:44 32.02854 -108.15946 27949 ft 426 kts 277°
2026-04-25 02:45 32.03314 -108.19385 28293 ft 424 kts 277°
2026-04-25 02:45 32.03772 -108.22805 28660 ft 422 kts 277°
2026-04-25 02:45 32.04228 -108.26221 28959 ft 421 kts 277°
2026-04-25 02:45 32.04681 -108.29631 29264 ft 420 kts 277°
2026-04-25 02:46 32.05125 -108.32977 29631 ft 418 kts 277°
2026-04-25 02:46 32.05572 -108.36350 29930 ft 416 kts 277°
2026-04-25 02:46 32.06018 -108.39714 29930 ft 413 kts 277°
2026-04-25 02:47 32.06903 -108.46428 29945 ft 415 kts 277°
2026-04-25 02:47 32.07787 -108.53165 29942 ft 416 kts 277°
2026-04-25 02:48 32.08669 -108.59909 29933 ft 416 kts 277°
2026-04-25 02:48 32.09547 -108.66664 29933 ft 416 kts 277°
2026-04-25 02:49 32.10420 -108.73401 29935 ft 415 kts 277°
2026-04-25 02:49 32.11286 -108.80101 29915 ft 416 kts 277°
2026-04-25 02:50 32.12151 -108.86836 29922 ft 415 kts 277°
2026-04-25 02:50 32.13012 -108.93561 29926 ft 414 kts 277°
2026-04-25 02:51 32.13870 -109.00284 29938 ft 414 kts 277°
2026-04-25 02:51 32.14723 -109.06999 29934 ft 413 kts 277°
2026-04-25 02:52 32.15569 -109.13704 29934 ft 413 kts 277°
2026-04-25 02:52 32.16414 -109.20416 29933 ft 413 kts 277°
2026-04-25 02:53 32.17254 -109.27120 29936 ft 413 kts 277°
2026-04-25 02:53 32.18332 -109.33730 29926 ft 414 kts 281°
2026-04-25 02:54 32.19787 -109.40311 29944 ft 414 kts 282°
2026-04-25 02:54 32.21252 -109.46877 29948 ft 413 kts 282°
2026-04-25 02:55 32.22671 -109.53453 29954 ft 413 kts 282°
2026-04-25 02:55 32.24067 -109.60036 29951 ft 413 kts 281°
2026-04-25 02:56 32.25453 -109.66620 29940 ft 414 kts 281°
2026-04-25 02:56 32.26837 -109.73214 29950 ft 414 kts 281°
2026-04-25 02:57 32.27988 -109.78703 29947 ft 414 kts 281°
2026-04-25 02:57 32.29368 -109.85311 29951 ft 414 kts 281°
2026-04-25 02:58 32.30966 -109.92988 29955 ft 413 kts 281°
2026-04-25 02:58 32.32107 -109.98484 29952 ft 413 kts 281°
2026-04-25 02:58 32.32791 -110.01786 29731 ft 413 kts 281°
2026-04-25 02:59 32.33472 -110.05075 29492 ft 412 kts 281°
2026-04-25 02:59 32.34153 -110.08367 29248 ft 413 kts 281°
2026-04-25 02:59 32.34835 -110.11675 29009 ft 415 kts 281°
2026-04-25 02:59 32.35520 -110.14998 28757 ft 416 kts 281°
2026-04-25 03:00 32.36206 -110.18331 28511 ft 418 kts 281°
2026-04-25 03:00 32.36894 -110.21682 28259 ft 419 kts 281°
2026-04-25 03:00 32.37581 -110.25031 28010 ft 419 kts 281°
2026-04-25 03:00 32.38268 -110.28386 27761 ft 420 kts 281°
2026-04-25 03:01 32.38955 -110.31745 27512 ft 421 kts 281°
2026-04-25 03:01 32.39643 -110.35110 27274 ft 421 kts 281°
2026-04-25 03:01 32.40329 -110.38476 27027 ft 422 kts 281°
2026-04-25 03:01 32.41018 -110.41859 26759 ft 423 kts 281°
2026-04-25 03:02 32.41708 -110.45253 26515 ft 425 kts 281°
2026-04-25 03:02 32.42400 -110.48657 26266 ft 426 kts 281°
2026-04-25 03:02 32.43095 -110.52085 26012 ft 428 kts 281°
2026-04-25 03:02 32.43790 -110.55515 25763 ft 425 kts 281°
2026-04-25 03:03 32.44470 -110.58876 25501 ft 416 kts 281°
2026-04-25 03:03 32.45134 -110.62153 25239 ft 402 kts 281°
2026-04-25 03:03 32.45771 -110.65304 25022 ft 386 kts 281°
2026-04-25 03:03 32.46373 -110.68288 24957 ft 369 kts 281°
2026-04-25 03:04 32.47121 -110.71150 24940 ft 365 kts 290°
2026-04-25 03:04 32.48380 -110.73779 24672 ft 368 kts 299°
2026-04-25 03:04 32.49828 -110.76276 24450 ft 366 kts 300°
2026-04-25 03:05 32.52739 -110.81200 24008 ft 367 kts 300°
2026-04-25 03:05 32.54176 -110.83690 23972 ft 365 kts 299°
2026-04-25 03:05 32.55591 -110.86163 23942 ft 359 kts 299°
2026-04-25 03:05 32.56967 -110.88573 23933 ft 344 kts 299°
2026-04-25 03:06 32.58285 -110.90875 23912 ft 331 kts 298°
2026-04-25 03:06 32.59549 -110.93082 23899 ft 317 kts 298°
2026-04-25 03:06 32.60765 -110.95210 23829 ft 305 kts 298°
2026-04-25 03:06 32.61949 -110.97287 23356 ft 306 kts 298°
2026-04-25 03:07 32.63175 -110.99455 22201 ft 328 kts 298°
2026-04-25 03:07 32.64477 -111.01759 21138 ft 344 kts 299°
2026-04-25 03:07 32.65817 -111.04118 20398 ft 351 kts 300°
2026-04-25 03:07 32.67184 -111.06517 19884 ft 350 kts 300°
2026-04-25 03:08 32.68544 -111.08899 19279 ft 350 kts 300°
2026-04-25 03:08 32.69921 -111.11323 18544 ft 354 kts 300°
2026-04-25 03:08 32.71287 -111.13724 18113 ft 349 kts 300°
2026-04-25 03:08 32.72640 -111.16105 17677 ft 346 kts 300°
2026-04-25 03:09 32.73961 -111.18429 17550 ft 333 kts 300°
2026-04-25 03:09 32.75244 -111.20692 17211 ft 328 kts 300°
2026-04-25 03:09 32.76513 -111.22932 16799 ft 326 kts 300°
2026-04-25 03:09 32.77767 -111.25149 16525 ft 319 kts 300°
2026-04-25 03:10 32.79002 -111.27334 16172 ft 316 kts 300°
2026-04-25 03:10 32.80205 -111.29463 15835 ft 313 kts 300°
2026-04-25 03:10 32.81411 -111.31601 15450 ft 310 kts 300°
2026-04-25 03:10 32.82610 -111.33728 15048 ft 309 kts 300°
2026-04-25 03:11 32.83805 -111.35850 14681 ft 308 kts 299°
2026-04-25 03:11 32.84997 -111.37966 14310 ft 307 kts 299°
2026-04-25 03:11 32.86182 -111.40069 13925 ft 305 kts 299°
2026-04-25 03:11 32.87356 -111.42154 13518 ft 304 kts 300°
2026-04-25 03:12 32.88520 -111.44220 13344 ft 296 kts 300°
2026-04-25 03:12 32.89651 -111.46225 13221 ft 286 kts 299°
2026-04-25 03:12 32.90798 -111.48119 13073 ft 281 kts 309°
2026-04-25 03:12 32.92383 -111.49502 12794 ft 290 kts 329°
2026-04-25 03:13 32.94258 -111.50452 12557 ft 297 kts 333°
2026-04-25 03:13 32.96202 -111.51378 12274 ft 304 kts 333°
2026-04-25 03:13 32.98194 -111.52322 11951 ft 310 kts 333°
2026-04-25 03:13 33.00203 -111.53283 11602 ft 312 kts 333°
2026-04-25 03:14 33.02210 -111.54252 11287 ft 310 kts 333°
2026-04-25 03:14 33.04196 -111.55216 10981 ft 306 kts 333°
2026-04-25 03:14 33.06155 -111.56172 10671 ft 303 kts 333°
2026-04-25 03:14 33.08100 -111.57126 10338 ft 300 kts 333°
2026-04-25 03:15 33.10014 -111.58070 10115 ft 295 kts 334°
2026-04-25 03:15 33.11888 -111.58996 9955 ft 287 kts 334°
2026-04-25 03:15 33.13705 -111.59892 9770 ft 279 kts 333°
2026-04-25 03:15 33.15479 -111.60769 9487 ft 278 kts 334°
2026-04-25 03:16 33.17257 -111.61650 9227 ft 276 kts 334°
2026-04-25 03:16 33.19026 -111.62525 8949 ft 274 kts 334°
2026-04-25 03:16 33.20781 -111.63393 8672 ft 272 kts 334°
2026-04-25 03:16 33.22526 -111.64257 8372 ft 272 kts 334°
2026-04-25 03:17 33.24243 -111.65186 8079 ft 270 kts 332°
2026-04-25 03:17 33.25928 -111.66171 7776 ft 269 kts 331°
2026-04-25 03:17 33.27608 -111.67167 7488 ft 269 kts 331°
2026-04-25 03:17 33.29287 -111.68160 7190 ft 269 kts 331°
2026-04-25 03:18 33.30955 -111.69141 6947 ft 266 kts 332°
2026-04-25 03:18 33.32617 -111.70115 6713 ft 264 kts 332°
2026-04-25 03:18 33.34259 -111.71076 6452 ft 262 kts 332°
2026-04-25 03:18 33.35891 -111.72032 6190 ft 261 kts 332°
2026-04-25 03:19 33.37497 -111.72971 5937 ft 259 kts 333°
2026-04-25 03:19 33.39105 -111.73913 5708 ft 256 kts 332°
2026-04-25 03:19 33.40470 -111.75217 5436 ft 250 kts 306°
2026-04-25 03:19 33.41324 -111.77007 5190 ft 247 kts 294°
2026-04-25 03:20 33.42022 -111.78876 4939 ft 245 kts 292°
2026-04-25 03:20 33.42696 -111.80744 4699 ft 243 kts 289°
2026-04-25 03:20 33.42931 -111.82722 4446 ft 240 kts 269°
2026-04-25 03:20 33.42876 -111.84769 3875 ft 252 kts 267°
2026-04-25 03:21 33.42834 -111.86848 3662 ft 245 kts 270°
2026-04-25 03:21 33.42851 -111.88904 3073 ft 249 kts 270°
2026-04-25 03:21 33.42875 -111.90929 2804 ft 236 kts 270°
2026-04-25 03:21 33.42877 -111.92803 2528 ft 217 kts 269°
2026-04-25 03:22 33.42865 -111.94563 2148 ft 206 kts 269°
2026-04-25 03:22 33.42861 -111.96234 1827 ft 193 kts 271°
2026-04-25 03:22 33.42887 -111.97764 1589 ft 174 kts 270°
2026-04-25 03:22 33.42879 -111.99151 1322 ft 159 kts 270°
2026-04-25 03:23 33.42884 -112.00425 1135 ft 150 kts 270°
2026-04-25 03:23 33.42885 -112.01559 1125 ft 117 kts 270°
2026-04-25 03:23 33.42884 -112.02205 1122 ft 60 kts 270°
2026-04-25 03:23 33.42910 -112.02478 1115 ft 23 kts 297°
2026-04-25 03:24 33.43036 -112.02548 1117 ft 21 kts 360°
2026-04-25 03:24 33.43165 -112.02552 1118 ft 16 kts 337°
2026-04-25 03:24 33.43216 -112.02665 1124 ft 16 kts 276°
2026-04-25 03:24 33.43217 -112.02792 1123 ft 15 kts 279°
2026-04-25 03:25 33.43303 -112.02824 1123 ft 14 kts
2026-04-25 03:25 33.43357 -112.02775 1123 ft 10 kts 93°
2026-04-25 03:25 33.43356 -112.02693 1123 ft 10 kts 90°
2026-04-25 03:25 33.43355 -112.02613 1123 ft 9 kts 90°
2026-04-25 03:26 33.43403 -112.02583 1123 ft 8 kts 360°
2026-04-25 03:26 33.43426 -112.02584 1123 ft 0 kts 360°